Regional Weather Roundup
Issued by NWS

Home | Current Version | Previous Version | Text Only | Print | Product List | Glossary On
Versions: 1 2 3 4 5 6 7 8 9 10 11 12 13 14 15 16 17 18 19 20 21 22 23 24 25 26 27 28 29 30 31 32 33 34 35 36 37 38 39 40 41 42 43 44 45 46 47 48 49 50
000
ASUS46 KSTO 270309
RWRCA

NORTHERN AND CENTRAL CA REGIONAL WEATHER ROUNDUP
NATIONAL WEATHER SERVICE SACRAMENTO CA
800 PM PDT WED JUL 26 2017

NOTE: FAIR INDICATES FEW OR NO CLOUDS BELOW 12,000 FEET WITH NO
SIGNIFICANT WEATHER AND/OR OBSTRUCTIONS TO VISIBILITY.

CAZ001-003-270400-
NORTHWEST AREA

CITY           SKY/WX    TMP DP  RH WIND       PRES   REMARKS
CRESCENT CITY  CLOUDY    55  54  96 VRB5      30.06S
ARCATA         NOT AVBL
SHELTER COVE   NOT AVBL
UKIAH          CLEAR     82  49  31 N7        29.96R
$$

CAZ006-505>513-270400-
BAY AREA

CITY           SKY/WX    TMP DP  RH WIND       PRES   REMARKS
SANTA ROSA     CLEAR     66  54  65 SE10      29.96R
SAN RAFAEL     N/A       79  MM  MM MISG
NAPA           LGT RAIN  72  58  61 S8        29.95R
CONCORD        CLEAR     79  55  43 NW9       29.93S
OAKLAND CITY   N/A      MM  MM  MM MISG
OAKLAND        PTCLDY    62  57  83 NW10      29.98S
SAN FRAN CITY  N/A       58  MM  84 MISG
SAN FRAN ARPT  PTCLDY    61  53  75 W21       29.97S
LIVERMORE      CLEAR     78  48  34 W10       29.94R
HAYWARD        CLEAR     67  54  63 NW10      29.97S
REDWOOD CITY   N/A       72  MM  63 MISG
MOFFETT ARPT   CLEAR     66  60  81 NW7       29.98R
SAN JOSE ARPT  CLEAR     70  60  70 W12       29.97R
$$
CAZ034-037-514>518-270400-
CENTRAL COAST

CITY           SKY/WX    TMP DP  RH WIND       PRES   REMARKS
WATSONVILLE    CLEAR     59  57  93 SW6       30.01S
SALINAS        CLEAR     63  56  78 W13       30.00R
MONTEREY       CLEAR     60  56  86 NW8       30.01S
PT PIEDRAS BLS NOT AVBL
SAN LUIS OBISP CLEAR     63  47  55 NW12      29.98R
SANTA MARIA    PTCLDY    60  58  92 VRB7      29.99S
$$
CAZ015-016-270400-
NORTHERN SACRAMENTO VALLEY

CITY           SKY/WX    TMP DP  RH WIND       PRES   REMARKS
REDDING        CLEAR     93  48  21 SE8       29.87R
RED BLUFF      CLEAR     91  57  31 SE7       29.88R
OROVILLE       CLEAR     92  53  26 S6        29.89S
$$
CAZ016>018-270400-
SOUTHERN SACRAMENTO VALLEY

CITY           SKY/WX    TMP DP  RH WIND       PRES   REMARKS
AUBURN         CLEAR     86  50  28 W3        29.98S
BEALE AFB      CLEAR     89  56  33 S5        29.86F
LINCOLN        FAIR      90  43  19 SW7       29.88S
MARYSVILLE     CLEAR     91  53  27 S6        29.88S
SAC INTL ARPT  CLEAR     87  49  26 S10       29.88S
MATHER AIRPORT CLEAR     88  45  22 SW10      29.89R
DOWNTOWN SAC   N/A       87  MM  MM MISG
SAC EXEC ARPT  CLEAR     83  55  38 S6        29.89S
VACAVILLE      CLEAR     88  53  30 SW7       29.90R
TRAVIS AFB     CLEAR     77  54  44 SW18      29.87S
$$
CAZ019>021-270400-
SAN JOAQUIN VALLEY

CITY           SKY/WX    TMP DP  RH WIND       PRES   REMARKS
STOCKTON       CLEAR     85  53  33 NW12      29.90R
MODESTO        CLEAR     91  52  26 NW12      29.88S
MERCED         CLEAR     89  53  29 NW10      29.89R
LEMOORE        CLEAR     92  60  34 N14       29.88R HX  91
FRESNO         PTCLDY    93  57  29 NW13      29.88R HX  91
HANFORD        PTCLDY    93  58  30 NW10      29.88R HX  92
PORTERVILLE      N/A     92  65  40 NW5       29.89R HX  94
BAKERSFIELD    CLEAR     94  57  28 NW7       29.88R HX  92
$$
CAZ011-012-071-270400-
NORTHERN MOUNTAINS

CITY           SKY/WX    TMP DP  RH WIND       PRES   REMARKS
YREKA          PTCLDY    86  52  30 N10       30.02R
MOUNT SHASTA   PTCLDY    74  46  36 NE3       30.07S
ALTURAS        MOCLDY    68  57  68 S3        30.17R
$$
CAZ011-012-071-270400-
SIERRA NEVADA MTNS

CITY           SKY/WX    TMP DP  RH WIND       PRES   REMARKS
BLUE CANYON    CLEAR     71  39  31 W3        30.24S
TRUCKEE        CLEAR     66  41  39 W5        30.26S
TAHOE VLY ARPT CLEAR     67  48  50 VRB3      30.27R
MAMMOTH LAKES  FAIR      69  45  41 NW20G28   30.31S
$$




USA.gov is the U.S. government's official web portal to all federal, state and local government web resources and services.